Weather in Kamskoye

Russia / Udmurt Republic     57°01′55″N   54°12′31″E
temp.,
°C
wind,
m/s
gust,
m/s
humid.,
%
clouds,
%
prec.,
mm/h
press.,
hPa
HPBL,
m
18 april, sun
sun1801:00+4nw11755 0.0 102210
04:00+3nw11805 0.0 102210
07:00+4nnw27750 0.0 1022209
10:00+6nne6771100 0.0 1023981
13:00+7nne67379 0.0 10251530
16:00+6ne68350 0.0 10271610
19:00+5ene594698 0.0 1027801
22:00+2ene511510 0.0 1030655
19 april, mon
mon1901:000ene411545 0.0 1032531
04:00−1ene4115334 0.0 1033481
07:000ene59430 0.0 1034899
10:00+3e58260 0.0 10351451
13:00+5e57250 0.0 10341718
16:00+6e56260 0.0 10341742
19:00+3ene37390 0.0 1034238
22:000e22500 0.0 103535
20 april, tue
tue2001:00−1e22530 0.0 103636
04:00−1ese11550 0.0 103710
07:00+1se11450 0.0 1037149
10:00+6ese12290 0.0 10371072
13:00+9e11274 0.0 10361370
16:00+9ene11260 0.0 10351326
19:00+6ne11380 0.0 103410
22:00+3ese11470 0.0 103510
21 april, wed
wed2101:00+2se11520 0.0 103410
04:000ese11560 0.0 103410
07:00+3se11490 0.0 103595
10:00+9se34345 0.0 1034869
13:00+12sse45285 0.0 10321320
16:00+12sse562999 0.0 10311281
19:00+9sse3841100 0.0 1031287
22:00+6sse31252100 0.0 1031279
22 april, thu
thu2201:00+5sse31256100 0.0 1031283
04:00+4sse3125993 0.0 1032286
07:00+5s41254100 0.0 1032510
10:00+9s51042100 0.0 10321038
13:00+11s5837100 0.0 10321344
16:00+13s593187 0.0 10311942
19:00+10ssw4944100 0.0 1032495
22:00+7s2257100 0.0 103240